Location: Auckland
(36.8670°S, 174.7670°E)
Time: 23:11:04
(UTC+12:00)

N. Korean satellite - Visible Passes

Search period start: 16 June 2019 00:00
Search period end: 26 June 2019 00:00
Orbit: 455 x 510 km, 97.2° (Epoch: 16 June)

Date Brightness Start Highest point End Pass type
(mag) Time Alt. Az. Time Alt. Az. Time Alt. Az.
16 Jun 9.9 04:33:58 10° E 04:34:48 11° ESE 04:34:48 11° ESE visible
16 Jun 7.0 06:04:43 10° N 06:08:08 40° W 06:09:07 33° WSW visible
16 Jun 8.2 17:34:10 10° SE 17:36:54 19° E 17:39:35 10° NE visible
16 Jun 8.9 19:07:08 10° SSW 19:10:14 24° WSW 19:13:17 10° NW visible
17 Jun 6.5 05:39:27 10° NNE 05:43:05 87° ESE 05:43:48 56° S visible
17 Jun 7.5 18:41:40 10° S 18:45:21 50° WSW 18:48:57 10° NNW visible
18 Jun 7.9 05:14:43 10° NE 05:18:07 38° ESE 05:18:29 37° ESE visible
18 Jun 8.7 06:50:34 10° WNW 06:51:43 11° W 06:52:48 10° WSW visible
18 Jun 6.6 18:16:34 10° SSE 18:20:21 72° E 18:24:03 10° N visible
19 Jun 9.2 04:50:37 10° ENE 04:53:10 19° ESE 04:53:10 19° ESE visible
19 Jun 7.8 06:23:31 10° NNW 06:26:29 23° W 06:27:29 21° WSW visible
19 Jun 7.5 17:51:51 10° SSE 17:55:16 32° E 17:58:36 10° NNE visible
19 Jun 9.6 19:26:13 10° SSW 19:28:21 15° WSW 19:30:28 10° WNW visible
20 Jun 6.8 05:57:47 10° N 06:01:21 50° W 06:02:10 41° WSW visible
20 Jun 8.6 19:00:14 10° SSW 19:03:31 28° WSW 19:06:44 10° NW visible
21 Jun 6.8 05:32:40 10° NNE 05:36:19 70° ESE 05:36:51 59° SSE visible
21 Jun 7.1 18:34:51 10° S 18:38:36 62° WSW 18:42:13 10° NNW visible
22 Jun 8.3 05:08:04 10° NE 05:11:22 32° ESE 05:11:33 31° ESE visible
22 Jun 8.5 06:42:54 10° NW 06:44:52 14° W 06:45:51 13° WSW visible
22 Jun 6.7 18:09:51 10° SSE 18:13:34 57° E 18:17:10 10° N visible
23 Jun 9.5 04:44:11 10° ENE 04:46:13 16° ESE 04:46:13 16° ESE visible
23 Jun 7.6 06:16:27 10° NNW 06:19:39 28° W 06:20:32 25° WSW visible
23 Jun 7.7 17:45:15 10° SE 17:48:27 26° E 17:51:33 10° NNE visible
23 Jun 9.4 19:19:07 10° SSW 19:21:36 17° WSW 19:24:05 10° WNW visible
24 Jun 6.6 05:50:54 10° N 05:54:32 63° W 05:55:13 51° SW visible
24 Jun 8.2 18:53:20 10° S 18:56:45 34° WSW 19:00:05 10° NW visible
25 Jun 7.2 05:25:54 10° NNE 05:29:31 57° ESE 05:29:55 53° SE visible
25 Jun 6.7 18:28:02 10° S 18:31:47 77° WSW 18:35:25 10° NNW visible
